Regional Weather Roundup
Issued by NWS

Home | Current Version | Previous Version | Graphics & Text | Print | Product List | Glossary On
Versions: 1 2 3 4 5 6 7 8 9 10 11 12 13 14 15 16 17 18 19 20 21 22 23 24 25 26 27 28 29 30 31 32 33 34 35 36 37 38 39 40 41 42 43 44 45 46 47 48 49 50
000
ASUS43 KMKX 012021
RWRWI

WISCONSIN REGIONAL WEATHER ROUNDUP
NATIONAL WEATHER SERVICE MILWAUKEE/SULLIVAN WI
300 PM CDT SAT AUG 01 2015

NOTE: "FAIR" INDICATES FEW OR NO CLOUDS BELOW 12,000 FEET WITH NO
SIGNIFICANT WEATHER AND/OR OBSTRUCTIONS TO VISIBILITY.

WIZ001-002-006>008-014>016-023>028-012100-
NORTHWEST WISCONSIN

CITY           SKY/WX    TMP DP  RH WIND       PRES   REMARKS
SUPERIOR ARPT  MOSUNNY   81  54  39 W12       29.84F HX  81
ASHLAND        MOSUNNY   81  53  37 W9G20     29.86F HX  80
HAYWARD        MOSUNNY   80  50  34 VRB7      29.90F HX  80
SIREN          SUNNY     82  50  33 W8        29.90F HX  80
CUMBERLAND     SUNNY     77  50  38 W7        29.92F
RICE LAKE      SUNNY     79  54  41 W9        29.93F
CHETEK         SUNNY     80  54  40 MISG      29.92F HX  80
LADYSMITH      MOSUNNY   79  52  38 W13       29.93F
EAU CLAIRE     SUNNY     82  54  37 W7        29.91F HX  81
MENOMONIE      SUNNY     83  51  32 SW8G16    29.92F HX  82
NEW RICHMOND   SUNNY     83  50  32 W8        29.92F HX  81
OSCEOLA        SUNNY     82  53  37 W5        29.93F HX  81
$$

WIZ003>005-009-010-017-018-012100-
NORTH CENTRAL WISCONSIN

CITY           SKY/WX    TMP DP  RH WIND       PRES   REMARKS
MANITOWISH WTR SUNNY     74  51  44 W9        29.89F
ARBOR VITAE    MOSUNNY   77  55  45 W7        29.90F
WOODRUFF       MOSUNNY   77  55  45 W7        29.90F
RHINELANDER    MOSUNNY   79  51  37 W12G18    29.92F
EAGLE RIVER    SUNNY     77  45  32 W15       29.89F
LAND O LAKES   MOSUNNY   77  44  31 W8G17     29.90F
PHILLIPS       PTSUNNY   77  52  41 W12G17    29.90F
TOMAHAWK       PTSUNNY   76  51  41 W14G20    29.92F
MEDFORD        MOSUNNY   77  53  43 W12G17    29.93F
MERRILL        NOT AVBL
$$

WIZ029-030-035-036-043>047-012100-
CENTRAL WISCONSIN

CITY           SKY/WX    TMP DP  RH WIND       PRES   REMARKS
WAUSAU         MOSUNNY   79  47  32 NW10G21   29.90F
MOSINEE        MOSUNNY   79  48  34 W13       29.93F
MARSHFIELD     MOSUNNY   81  51  35 W9        29.92F HX  80
STEVENS POINT  MOSUNNY   78  49  35 W13G18    29.93S
WAUPACA        SUNNY     85  46  25 W8G16     29.90F HX  82
WAUTOMA        MOSUNNY   85  49  28 W15       29.91F HX  83
WISC RAPIDS    SUNNY     84  48  28 NW14      29.93F HX  82
CAMP DOUGLAS   MOSUNNY   82  61  47 W9        29.92F HX  83
$$

WIZ011>013-019>022-031-037>040-048>050-012100-
NORTHEAST WISCONSIN

CITY           SKY/WX    TMP DP  RH WIND       PRES   REMARKS
ANTIGO         MOSUNNY   78  52  39 W12G18    29.92F
SHAWANO        SUNNY     82  47  29 NW9G18    29.89F HX  80
OCONTO         PTSUNNY   83  51  33 W16G22    29.86F HX  81
STURGEON BAY   MOSUNNY   81  52  36 W12G18    29.89F HX  80
GREEN BAY      SUNNY     82  51  34 W14G22    29.88F HX  81
MANITOWOC      SUNNY     82  45  27 MISG      29.89F HX  80
APPLETON       MOSUNNY   81  43  26 NW16G23   29.91F
CLINTONVILLE   MOSUNNY   81  43  26 NW13G23   29.89F
OSHKOSH        MOSUNNY   80  51  36 NW13G21   29.90F HX  80
$$

WIZ032>034-041-042-053>061-012100-
SOUTHWEST WISCONSIN

CITY           SKY/WX    TMP DP  RH WIND       PRES   REMARKS
LA CROSSE      FAIR      85  64  49 VRB3      29.92F HX  86
SPARTA         MOSUNNY   84  53  33 NW13      29.93F HX  83
VIROQUA        FAIR      82  62  51 NW9       29.96S HX  82
BOSCOBEL       SUNNY     90  63  40 NW9       29.93S HX  91
PRAIRIE DU CHI SUNNY     88  56  33 W9G16     29.92S HX  86
PLATTEVILLE    SUNNY     85  61  43 NW12G20   29.95S HX  85
$$

WIZ056-057-062-063-064-067-068-012100-
SOUTH CENTRAL WISCONSIN

CITY           SKY/WX    TMP DP  RH WIND       PRES   REMARKS
REEDSBURG      MOSUNNY   85  58  41 NW9G16    29.92F HX  84
BARABOO/DELLS  SUNNY     85  51  31 NW9       29.92F HX  83
LONE ROCK      SUNNY     87  61  41 NW9       29.92F HX  87
MINERAL POINT  SUNNY     86  59  39 W8        29.94F HX  85
MADISON        MOSUNNY   85  63  47 NW6       29.91F HX  86
MIDDLETON      MOSUNNY   86  57  37 W10G17    29.93S HX  85
WATERTOWN      SUNNY     80  61  52 W6        29.92F HX  81
MONROE         PTSUNNY   84  63  48 W15       29.93F HX  85
JANESVILLE     MOSUNNY   88  59  37 W14G22    29.91F HX  87
$$

WIZ051-052-058>065-066-070>072-012100-
SOUTHEAST WISCONSIN

CITY           SKY/WX    TMP DP  RH WIND       PRES   REMARKS
MILWAUKEE      PTSUNNY   81  55  40 W9        29.92F HX  81
WAUKESHA       MOSUNNY   81  55  41 W15       29.95F HX  80
MILWAUKEE/TIMM MOSUNNY   81  48  32 W13G20    29.93F HX  80
RACINE         MOSUNNY   83  58  42 W3        29.93F HX  83
BURLINGTON     SUNNY     83  56  39 NW15      29.92F HX  83
KENOSHA        PTSUNNY   83  60  45 W13G22    29.92F HX  83
FOND DU LAC    PTSUNNY   82  53  36 W16       29.91F HX  81
SHEBOYGAN      SUNNY     81  53  37 NW14G24   29.90F HX  80
WEST BEND      MOSUNNY   81  50  34 W10G20    29.92F HX  80
JUNEAU         MOSUNNY   78  58  49 SW8       29.94F
$$

LSZ147-162-012100-
LAKE SUPERIOR

STATION/POSITION TIME  TEMP    WIND        PRES    WAVE
                       AIR SEA DIR/SP/G            HT/PER
                 (UTC) (F)     (DEG/KT/KT) (MB)    (FT/S)
W MID LAKE BUOY  1950   60 54  210/ 12/ 14 1009.6F   2/ 4
DEVILS ISLAND    2000   72     230/  9/ 14 1009.8F
PORT WING        1900   77     250/  9/ 14 1011.5F
SAXON HARBOR     1940   76                 1010.8F
$$

LMZ867-665-643>646-012100-
LAKE MICHIGAN

STATION/POSITION TIME  TEMP    WIND        PRES    WAVE
                       AIR SEA DIR/SP/G            HT/PER
                 (UTC) (F)     (DEG/KT/KT) (MB)    (FT/S)
CHAMBERS ISLAND  1900   78     240/  5/  6 1011.2F
S GREEN BAY BUOY 1900   72 71  260/  6/  8 1013.3F
N MID LAKE BUOY  1950   69 68  210/ 12/ 14 1010.4F   1/ 3
NORTHPORT PIER   1900   78     310/  6/ 14 1011.2F
SISTER BAY       1914   79     280/  8/  9   N/A
ALGOMA LAKESHORE 1912          250/  8/ 15   N/A
KEWAUNEE LAKESHO 1900   79     300/  9/ 15 1011.7F
SHEBOYGAN LAKESH 2000   80     290/ 10/ 13 1012.4F
PORT WASHINGTON  1940   84     280/ 10/ 16 1012.9F
ATWATER BUOY     2000   77 68  270/  8/ 10 1014.5F
MILWAUKEE LAKESH 2000   79     280/ 12/ 17   N/A
KENOSHA   LAKESH 2000   74     120/ 13/ 16 1012.5F
$$

TC  - TEMPERATURE IN CELSIUS
VSB - VISIBILITY IN STATUTE MILES
WCI - WIND CHILL INDEX
HX  - HEAT INDEX



USA.gov is the U.S. government's official web portal to all federal, state and local government web resources and services.